Location: *
(50.8512°N, 5.6907°E)
Time: 17:08:45
(UTC+00:00)

STARLINK-1241 - Pass Details

Date: 09 April 2020
Orbit: 549 x 551 km, 53.0° (Epoch: 02 June)

Event Time Altitude Azimuth Distance (km) Brightness Sun altitude
Rises 19:55:16 0° 290° (WNW) 2,734 8.9 -14.1°
Reaches altitude 10° 19:57:31 10° 288° (WNW) 1,837 7.6 -14.4°
Maximum altitude 20:01:39 65° 206° (SSW) 611 3.7 -14.9°
Enters shadow 20:03:42 28° 132° (SE) 1,055 4.5 -15.2°
